User: anonymous   Login
Location: Unspecified
(0.0000°N, 0.0000°E)
Time: 20:08:17
(UTC+01:00)
Language:

Cosmos 1943 Rocket - Orbit

View from above orbital plane
View from above orbital plane
View from above satellite
View from above satellite

Ground track
Ground track

The orbit data is extracted from the following two-line orbital elements,

1 19120U 88039B   15084.97508729  .00000289  00000-0  16074-3 0  9996
2 19120 071.0138 245.2158 0022092 350.6393 009.4316 14.19095813390877
Epoch (UTC): 25 March 2015 23:24:07
Eccentricity: 0.0022092
inclination: 71.0138°
perigee height: 812 km
apogee height: 844 km
right ascension of ascending node: 245.2158°
argument of perigee: 350.6393°
revolutions per day: 14.19095813
mean anomaly at epoch: 9.4316°
orbit number at epoch: 39087

The dashed part of the orbit path shows where the satellite is in the earth's shadow,  

DLR